User: anonymous   Login
Location: Unspecified
(0.0000°N, 0.0000°E)
Time: 08:34:35
(UTC+00:00)
Language:

CLOUDSAT - Orbit

View from above orbital plane
View from above orbital plane
View from above satellite
View from above satellite

Ground track
Ground track

The orbit data is extracted from the following two-line orbital elements,

1 29107U 06016A   16236.47531750  .00000084  00000-0  28777-4 0  9999
2 29107  98.2022 178.6595 0000494  99.3801 260.7453 14.57113750549078
Epoch (UTC): 23 August 2016 11:24:27
Eccentricity: 0.0000494
inclination: 98.2022°
perigee height: 702 km
apogee height: 703 km
right ascension of ascending node: 178.6595°
argument of perigee: 99.3801°
revolutions per day: 14.57113750
mean anomaly at epoch: 260.7453°
orbit number at epoch: 54907

The dashed part of the orbit path shows where the satellite is in the earth's shadow,  

DLR